Location: ?????????
(38.4921°N, 22.9787°E)
Time: 02:24:29
(UTC+00:00)

ARIANE 5 R/B - Pass Details

Date: 08 December 2025
Orbit: 747 x 792 km, 98.8° (Epoch: 15 January)

Event Time Altitude Azimuth Distance (km) Brightness Sun altitude
Rises 04:28:44 0° 21° (NNE) 3,290 5.8 -12.3°
Reaches altitude 10° 04:31:11 10° 28° (NNE) 2,360 5.1 -11.8°
Maximum altitude 04:36:07 42° 99° (E) 1,125 4.0 -10.9°
Drops below altitude 10° 04:41:01 10° 169° (S) 2,348 5.5 -10.0°
Sets 04:43:26 0° 177° (S) 3,270 6.1 -9.6°
